Regional Weather Roundup
Issued by NWS

Home | Current Version | Previous Version | Text Only | Print | Product List | Glossary Off
Versions: 1 2 3 4 5 6 7 8 9 10 11 12 13 14 15 16 17 18 19 20 21 22 23 24 25 26 27 28 29 30 31 32 33 34 35 36 37 38 39 40 41 42 43 44 45 46 47 48 49 50

005
ASUS43 KLOT 291808
RWRIL

ILLINOIS REGIONAL WEATHER ROUNDUP
NATIONAL WEATHER SERVICE CHICAGO/ROMEOVILLE IL
100 PM CDT FRI APR 29 2016

NOTE: "FAIR" INDICATES FEW OR NO CLOUDS BELOW 12,000 FEET WITH NO
SIGNIFICANT WEATHER AND/OR OBSTRUCTIONS TO VISIBILITY.

* THESE STATIONS ARE NOT UNDER NWS QUALITY CONTROL. THEY ALSO MAY NOT
  REPORT WEATHER SUCH AS PRECIPITATION OR FOG.

ILZ001-002-007-009-015-016-024-291900-
NORTHWEST ILLINOIS

CITY           SKY/WX    TMP DP  RH WIND       PRES   REMARKS
MOLINE         CLOUDY    52  41  66 MISG      30.10F
6HR MIN TEMP:  45; 6HR MAX TEMP:  52;

STERLING*      CLOUDY    46  41  81 E7        30.13S
SAVANNA*       CLOUDY    49  40  71 SE8       30.12S
$$

ILZ003-004-008-010-011-017-018-291900-
NORTH CENTRAL ILLINOIS

CITY           SKY/WX    TMP DP  RH WIND       PRES   REMARKS
ROCKFORD       CLOUDY    47  38  71 E3        30.14R
6HR MIN TEMP:  43; 6HR MAX TEMP:  48;

FREEPORT*      CLOUDY    46  38  74 NE5       30.13S
ROCHELLE*      CLOUDY    46  39  78 E8        30.12S
DE KALB*       CLOUDY    46  40  79 E5        30.12S
$$

ILZ005-006-012>014-019>023-291900-
NORTHEAST ILLINOIS

CITY           SKY/WX    TMP DP  RH WIND       PRES   REMARKS
CHICAGO-OHARE  CLOUDY    46  38  73 NE9       30.11R
6HR MIN TEMP:  41; 6HR MAX TEMP:  47;

CHICAGO-MIDWAY CLOUDY    50  39  66 NE10      30.10R
6HR MIN TEMP:  44; 6HR MAX TEMP:  50;

AURORA         CLOUDY    48  40  73 CALM      30.12R
6HR MIN TEMP:  44; 6HR MAX TEMP:  48;

LANSING*       CLOUDY    47  39  74 N8        30.12R
JOLIET*        CLOUDY    49  42  75 E3        30.11F
WAUKEGAN       CLOUDY    46  38  73 NE10      30.10R
6HR MIN TEMP:  41; 6HR MAX TEMP:  46;

DUPAGE AIRPORT CLOUDY    46  38  73 NE7       30.10R
6HR MIN TEMP:  43; 6HR MAX TEMP:  47;

KANKAKEE*      CLOUDY    49  43  78 CALM      30.11F
WHEELING       CLOUDY    47  38  71 NE12      30.13R
6HR MIN TEMP:  41; 6HR MAX TEMP:  47;

MORRIS*        CLOUDY    47  41  80 CALM      30.10F
ROMEOVILLE*    CLOUDY    47  39  73 NE5       30.11S
NORTHERLY ISL    N/A     44  39  82 N12         N/A
NORTHERLY ISL    N/A     44  39  82 N12         N/A
$$

LMZ740>746-291900-
SOUTHERN LAKE MICHIGAN

STATION/POSITION SKY/WX   TEMP    WIND        PRES    VSBY  WAVE
                          AIR SEA DIR/SP/G                  HT/PER
                          (F)     (DEG/KT/KT) (MB)    (MI)  (FT/S)
SOUTHERN BUOY              40 40   40/ 10/ 12 1019.2F         1/ 3
HARRISON CRIB              41     360/ 17/ 18   N/A
BURNHAM HARBOR             44     350/  9/ 15   N/A
CALUMET HARBOR             43     340/ 15/ 19 1018.9R
BURNS HARBOR               42     350/ 12/ 15 1019.6S
MICHIGAN CITY              42     320/ 15/ 16   N/A
ST. JOSEPH                 42 46   CALM  / 12   N/A           2/ 3
$$

ILZ025>027-034>036-040-047-049-050-058-095>099-291900-
WEST-CENTRAL ILLINOIS

CITY           SKY/WX    TMP DP  RH WIND       PRES   REMARKS
QUINCY         CLOUDY    52  47  83 NE9       30.08S
GALESBURG*     CLOUDY    49  43  80 NE6       30.09F
MACOMB*        CLOUDY    51  46  83 NE8       30.11S
JACKSONVILLE*  CLOUDY    56  48  75 E7        30.08R
PITTSFIELD*    CLOUDY    55  50  83 NE8       30.08F
$$

ILZ028>032-037-038-041>044-048-051>054-059>061-291900-
CENTRAL ILLINOIS

CITY           SKY/WX    TMP DP  RH WIND       PRES   REMARKS
PONTIAC        CLOUDY    51  46  83 N6        30.11F
BLOOMINGTON    CLOUDY    54  47  77 NE7       30.09F
DECATUR        CLOUDY    57  48  72 NE6       30.07F
PEORIA         CLOUDY    54  44  69 NE7       30.08F
6HR MIN TEMP:  48; 6HR MAX TEMP:  54;

LACON*         CLOUDY    49  42  76 NE6       30.09F
LINCOLN*       CLOUDY    54  48  79 NE9       30.07F
SPRINGFIELD    CLOUDY    55  48  77 NE9       30.08R
6HR MIN TEMP:  50; 6HR MAX TEMP:  57;

TAYLORVILLE    CLOUDY    57  50  77 NE6       30.07R
$$

ILZ033-039-045-046-055>057-062-063-291900-
EAST-CENTRAL ILLINOIS

CITY           SKY/WX    TMP DP  RH WIND       PRES   REMARKS
CHAMPAIGN      CLOUDY    58  48  69 N10       30.07F
RANTOUL*       CLOUDY    55  47  75 NE3       30.08S
MATTOON        PTSUNNY   59  50  72 NE8       30.05S
PARIS*         CLOUDY    58  50  75 CALM      30.07F
$$

ILZ079-100>102-291900-
SOUTHWEST ILLINOIS

CITY           SKY/WX    TMP DP  RH WIND       PRES   REMARKS
BELLEVILLE     CLOUDY    61  54  76 NE7       30.03F
CAHOKIA*       CLOUDY    62  50  64 NE7       30.03F
SPARTA*        CLOUDY    61  52  72 E6        30.05S
$$

ILZ064>066-069>071-074>076-080>082-084>086-088>090-092>094-291900-
SOUTH-CENTRAL ILLINOIS

CITY           SKY/WX    TMP DP  RH WIND       PRES   REMARKS
CARBONDALE     CLOUDY    63  52  67 E7        30.03F
6HR MIN TEMP:  52; 6HR MAX TEMP:  64;

CAIRO*         CLOUDY    61  55  78 CALM      30.04R
EFFINGHAM*     CLOUDY    63  53  69 E3        30.06S
MARION         CLOUDY    64  54  68 E8        30.05F
MT. VERNON     CLOUDY    64  52  63 SE3       30.06F
CENTRALIA*     CLOUDY    64  54  70 SE3       30.04F
SALEM*         CLOUDY    64  51  62 S5        30.05F
METROPOLIS*    CLOUDY    64  56  75 CALM      30.05S
$$

ILZ067-068-072-073-078-083-087-091-291900-
SOUTHEAST ILLINOIS

CITY           SKY/WX    TMP DP  RH WIND       PRES   REMARKS
LAWRENCEVILLE  CLOUDY    66  52  60 NE6       30.04F
FLORA*         CLOUDY    65  52  62 S5        30.05F
FAIRFIELD*     CLOUDY    64  52  65 CALM      30.05R
HARRISBURG*    CLOUDY    65  53  65 E6        30.05F
ROBINSON*      CLOUDY    64  51  64 E3        30.05F
CARMI*         CLOUDY    65  52  62 SE3       30.04F
$$

ABBREVIATIONS USED IN REMARKS
   TC - TEMPERATURE IN CELSIUS
  WCI - WIND CHILL INDEX
   HX - HEAT INDEX
  VSB - VISIBILITY
$$





USA.gov is the U.S. government's official web portal to all federal, state and local government web resources and services.